|
NORAD ID: 13719 Int'l Code: 1982-116B
Perigee: 799.8 km
Apogee: 903.3 km
Inclination: 81.3 °
Period: 101.8 minutes
Semi major axis: 7222 km
Launch date: December 14, 1982
Source: Commonwealth of Independent States (former USSR) (CIS)
Note: This is a ROCKET BODY
Two Line Element Set (TLE):
1 13719U 82116B 13165.87265787 .00000045 00000-0 16562-4 0 1732
2 13719 081.2545 353.6602 0071641 205.5885 266.1527 14.14391809573492
Source:
NASA's NSSDC Master Catalog entry for SL-3 R/B
|